STARLINK-1067, 44771

Orbit data source: Space-Track

STARLINK-1067, 44771 is a payload satellite owned by SpaceX/Seattle (US) in LEO that was launched on Mon, 11 Nov 2019 UTC via an FALCON 9 launch vehicle from the Air Force Eastern Test Range (AFETR). Payload-class satellites include a variety of spacecraft equipped with specific instruments for various scientific and technological missions. These include communications satellites like Starlink; space stations such as the ISS; scientific satellites like the Hubble; Earth observation satellites from companies like Planet Labs, Umbra, and HawkEye 360; GPS; miniature CubeSats for education and research; and military/defense satellites.

Loading next visibility...
Identifier
44771, 2019-074BL
Orbit
LEO
Country
Flag of USUS
Related business
Manufacturer
SpaceX/Seattle
Mission
Operational Commercial Communications
Bus & Motor
STARLINK, Unknown motor
Mass
260 kg wet, ~248 kg dry
Launch date (UTC)
2019-11-11 (6 years ago)
Launch vehicle
FALCON 9
Launch site
Air Force Eastern Test Range (AFETR)
Object type
Payload
Rocket body
Debris
Shape & HBR
Box + 1 Pan, 10.1 m
Radar Cross Section
13.562 m², Large (>1 m²)

Expand to show TLE details & history
Last TLE update: 15 hours ago

TLE from 15 hours ago
0 STARLINK-1067
1 44771U 19074BL  25287.64963191  .00006975  00000-0  48674-3 0  9996
2 44771  53.0522 162.2197 0002162  86.3045 273.8191 15.06398127326180
Epoch: 2025-10-14T15:35Z
TLE epoch observation values (Epoch: 2025-10-14T15:35:28.197Z)
Latitude
-0.00001°
Longitude
-95.08282°
Altitude
547.997 km
Speed
7.589 km/s
True Right ascension
10h 48m 52s
True Declination
0° 00' 00"
Sunlit
Object was in daylight at epoch
Visualization orbit readout
Latitude
Unknown
Longitude
Unknown
Altitude
Unknown
Speed
Unknown
Apparent Right ascension
Unknown
Apparent Declination
Unknown
Sunlit
N/A
Visualization observer readout
Local Sidereal Time
00:44:15
Azimuth
Unknown
Elevation
Unknown
Doppler factor
Unknown
Orbital elements
Apogee altitude
548.986 km
Perigee altitude
545.991 km
Semi-major axis
6,925.625 km
Eccentricity
0.00022
Inclination
53.0522°
RAAN
162.2197°
Arg. of periapsis
86.3045°
True anomaly
273.79438°
Mean anomaly
273.8191°
Eccentric anomaly
273.80674°
Mean motion
3.76578 °/min
Orbital period
95.6 mins
BSTAR
0.00048674
Loading maneuver chart data...
Computing Atmospheric mass density...

Documentation

Showing up to 5 results
|